Home > Weather > Askim > Past weeks

Flag for Norway Weather for the Past 2 Weeks in Askim, Norway

Now
41 °F

Light rain. Passing clouds.


Feels Like: 31 °F
Forecast: 33 / 39 °F
Wind: 24 mph from South

Location: Rygge

Current Time: Feb 8, 2016 at 8:00:16 AM

Latest Report: Feb 8, 2016 at 7:20 AM


Visibility: 5 mi

Pressure: 28.97 "Hg

Humidity: 87%

Dew point: 37 °F

Location of AskimLocation

Historic Weather in Askim — Graph

°F

Askim Temperature Yesterday

Maximum temperature yesterday: 43 °F (at 12:20 AM)
Minimum temperature yesterday: 37 °F (at 9:50 PM)
Average temperature yesterday: 41 °F

High & Low Weather Summary for the Past Weeks

 TemperatureHumidityPressure
High43 °F (Jan 28, 12:20 PM)100% (Jan 24, 6:20 AM)30.15 "Hg (Jan 24, 6:20 AM)
Low25 °F (Feb 4, 5:50 AM)45% (Jan 31, 2:20 PM)28.77 "Hg (Feb 2, 6:20 PM)
Average36 °F85%29.42 "Hg
* Reported Jan 24 6:20 AM — Feb 8 6:50 AM, Askim, Weather by CustomWeather, © 2016

Note: Actual official high and low records may vary slightly from our data, if they occured in-between our weather recording intervals... More about our weather records

Advertising

Askim Weather History for the Previous 24 Hours

 ConditionsComfort  
Time TempWeatherWind HumidityBarometerVisibility
6:50 AM
Mon, Feb 8
41 °FLight rain. Partly cloudy.22 mph87%28.97 "Hg5 mi
6:20 AM41 °FLight rain. Partly cloudy.25 mph87%29.00 "Hg5 mi
5:50 AM41 °FLight rain. Low clouds.21 mph87%29.00 "Hg6 mi
5:20 AM41 °FLight rain. Low clouds.21 mph93%29.03 "Hg4 mi
4:50 AM41 °FLight rain. Mostly cloudy.18 mph87%29.03 "Hg4 mi
4:20 AM41 °FLow clouds.20 mph87%29.06 "HgN/A
3:50 AM39 °FPassing clouds.20 mph93%29.06 "HgN/A
3:20 AM41 °FPartly cloudy.22 mph87%29.06 "HgN/A
2:50 AM41 °FMostly cloudy.21 mph87%29.09 "HgN/A
1:50 AM41 °FMostly cloudy.21 mph87%29.09 "HgN/A
1:20 AM39 °FOvercast.20 mph93%29.12 "HgN/A
12:50 AM41 °FLow clouds.21 mph87%29.12 "HgN/A
12:20 AM39 °FOvercast.18 mph93%29.12 "HgN/A
11:50 PM
Sun, Feb 7
39 °FMostly cloudy.17 mph93%29.12 "HgN/A
11:20 PM39 °FPartly cloudy.18 mph93%29.15 "HgN/A
10:50 PM39 °FRain showers. Passing clouds.20 mph93%29.15 "Hg2 mi
10:20 PM39 °FPartly cloudy.14 mph93%29.15 "HgN/A
9:50 PM37 °FRain. Partly cloudy.15 mph93%29.15 "Hg2 mi
9:20 PM39 °FLight rain. Passing clouds.15 mph87%29.15 "Hg4 mi
8:50 PM41 °FPartly cloudy.18 mph93%29.15 "HgN/A
8:20 PM41 °FPassing clouds.17 mph93%29.15 "HgN/A
7:50 PM41 °FPassing clouds.16 mph87%29.15 "HgN/A
7:20 PM41 °FPartly cloudy.20 mph93%29.15 "HgN/A
6:50 PM41 °FPassing clouds.16 mph100%29.15 "Hg5 mi
6:20 PM41 °FPassing clouds.14 mph93%29.15 "Hg4 mi
5:50 PM41 °FPassing clouds.14 mph100%29.15 "Hg4 mi
5:20 PM41 °FPassing clouds.15 mph100%29.15 "Hg5 mi
4:50 PM41 °FPassing clouds.22 mph100%29.15 "Hg6 mi
4:20 PM41 °FPartly sunny.22 mph100%29.15 "Hg4 mi
3:50 PM41 °FDrizzle. Partly sunny.21 mph100%29.15 "Hg4 mi
3:20 PM41 °FLight rain. Partly sunny.18 mph93%29.15 "Hg4 mi
2:50 PM41 °FDrizzle. Partly sunny.18 mph100%29.15 "Hg5 mi
2:20 PM41 °FRain. Partly sunny.18 mph93%29.18 "Hg4 mi
1:50 PM41 °FLight rain. Partly sunny.15 mph93%29.18 "Hg4 mi
1:20 PM41 °FLight rain. Partly sunny.16 mph93%29.21 "Hg6 mi
12:50 PM41 °FLight rain. Partly sunny.16 mph93%29.21 "Hg6 mi
12:20 PM41 °FPartly sunny.16 mph93%29.24 "HgN/A
11:50 AM41 °FPartly sunny.15 mph93%29.24 "HgN/A
11:20 AM41 °FPartly sunny.16 mph93%29.24 "HgN/A
10:50 AM41 °FPartly sunny.16 mph93%29.27 "Hg6 mi
10:20 AM41 °FPartly sunny.16 mph93%29.27 "Hg5 mi
9:50 AM41 °FPartly sunny.16 mph93%29.27 "Hg5 mi
9:20 AM41 °FPartly sunny.16 mph93%29.27 "Hg4 mi
8:50 AM41 °FPartly sunny.16 mph93%29.27 "Hg4 mi
8:20 AM41 °FPartly sunny.15 mph93%29.27 "Hg4 mi
Weather by CustomWeather, © 2016

See weather overviewHow to use our weather pages